Weather History for KPOF - April, 2014

Change the Weather History Date:

Friday, April 18, 2014

  Actual Average (KCGI) Record (KCGI)
Temperature  
Mean Temperature 62 °F 58 °F  
Max Temperature 73 °F 70 °F 86 °F (2006)
Min Temperature 50 °F 46 °F 27 °F (2001)
Degree Days  
Heating Degree Days 4 8  
Month to date heating degree days 190  
Since 1 July heating degree days 4246  
Cooling Degree Days 0 1  
Month to date cooling degree days 12  
Year to date cooling degree days 16  
Growing Degree Days 12 (Base 50)    
Moisture  
Dew Point 44 °F    
Average Humidity 55    
Maximum Humidity 80    
Minimum Humidity 33    
Precipitation  
Precipitation 0.00 in 0.15 in 2.17 in (2013)
Month to date precipitation 2.46  
Year to date precipitation 13.74  
Sea Level Pressure  
Sea Level Pressure 30.22 in    
Wind  
Wind Speed 4 mph (NE)    
Max Wind Speed 14 mph    
Max Gust Speed 17 mph    
Visibility 10 miles    
Events Rain    
T = Trace of Precipitation, MM = Missing Value Source: NWS Daily Summary

Daily Weather History Graph

Daily Weather History Graph

Search for Another Location

Airport or City:

Trip Planner

Search our weather history database for the weather conditions in past years. The results will help you decide how hot, cold, wet, or windy it might be!

Date:

Astronomy

Apr. 18, 2014 Rise Set
Actual Time 6:23 AM CDT 7:38 PM CDT
Civil Twilight 5:56 AM CDT 8:05 PM CDT
Nautical Twilight 5:24 AM CDT 8:37 PM CDT
Astronomical Twilight 4:50 AM CDT 9:11 PM CDT
Moon 11:20 PM CDT (4/18) 8:48 AM CDT (4/18)
Length of Visible Light 14h 09m
Length of Day
13h 15m
Waning Gibbous, 87% of the Moon is Illuminated
Apr 18
Waning Gibbous
Apr 22
Last Quarter
Apr 29
New
May 6
First Quarter
May 14
Full

Hourly Weather History & Observations

Time (CDT) Temp. Dew Point Humidity Pressure Visibility Wind Dir Wind Speed Gust Speed Precip Events Conditions
12:53 AM 50.0 °F 44.1 °F 80% 30.22 in 10.0 mi North 3.5 mph - N/A   Clear
1:53 AM 50.0 °F 42.1 °F 74% 30.22 in 10.0 mi Calm Calm - N/A   Mostly Cloudy
2:53 AM 50.0 °F 44.1 °F 80% 30.23 in 10.0 mi Calm Calm - N/A   Scattered Clouds
3:53 AM 52.0 °F 43.0 °F 71% 30.26 in 10.0 mi SE 4.6 mph - 0.00 in Rain Light Rain
4:53 AM 52.0 °F 45.0 °F 77% 30.25 in 10.0 mi Calm Calm - 0.00 in Rain Light Rain
5:53 AM 51.1 °F 43.0 °F 74% 30.22 in 10.0 mi Calm Calm - 0.00 in   Scattered Clouds
6:53 AM 50.0 °F 44.1 °F 80% 30.24 in 10.0 mi NNW 3.5 mph - N/A   Clear
7:53 AM 55.9 °F 45.0 °F 67% 30.25 in 10.0 mi NNW 4.6 mph - N/A   Mostly Cloudy
8:53 AM 62.1 °F 43.0 °F 50% 30.26 in 10.0 mi NNE 4.6 mph - N/A   Clear
9:53 AM 66.0 °F 43.0 °F 43% 30.26 in 10.0 mi ENE 6.9 mph - N/A   Clear
10:53 AM 68.0 °F 43.0 °F 40% 30.27 in 10.0 mi ENE 6.9 mph - N/A   Clear
11:53 AM 69.1 °F 43.0 °F 39% 30.26 in 10.0 mi East 9.2 mph 16.1 mph N/A   Clear
12:53 PM 70.0 °F 41.0 °F 35% 30.25 in 10.0 mi East 13.8 mph 17.3 mph N/A   Scattered Clouds
1:53 PM 72.0 °F 43.0 °F 35% 30.23 in 10.0 mi East 10.4 mph - N/A   Clear
2:53 PM 72.0 °F 41.0 °F 33% 30.21 in 10.0 mi East 8.1 mph 17.3 mph N/A   Clear
3:53 PM 73.0 °F 42.1 °F 33% 30.18 in 10.0 mi NE 5.8 mph - N/A   Clear
4:53 PM 73.0 °F 43.0 °F 34% 30.17 in 10.0 mi ENE 10.4 mph - N/A   Clear
5:53 PM 72.0 °F 42.1 °F 34% 30.16 in 10.0 mi ENE 5.8 mph - N/A   Clear
7:53 PM 66.9 °F 43.0 °F 42% 30.16 in 10.0 mi East 3.5 mph - N/A   Clear
8:53 PM 60.1 °F 51.1 °F 72% 30.18 in 10.0 mi North 5.8 mph - N/A   Clear
10:53 PM 57.9 °F 46.0 °F 65% 30.20 in 10.0 mi NNE 4.6 mph - N/A   Clear
11:53 PM 59.0 °F 43.0 °F 55% 30.20 in 10.0 mi NE 3.5 mph - N/A   Clear